Terug naar catalogus

STARLINK-33744

ActiefCommunicatieVLEO
NORAD 63471·PAYLOAD·🇺🇸 United States

Gelanceerd Apr 6, 2025 vanaf Cape Canaveral Space Force Station

Loading…

Volgende Passages (komende 24 uur)

TLE

VersSource: CelesTrak SupGP

Epoch: Sep 15, 2026, 03:34 UTC

1 63471C 25070M   26258.14909722 -.00023344  00000+0 -84557-3 0  2589
2 63471  42.9999 270.0645 0001372 266.1678 290.9387 15.27588535    16

Volg STARLINK-33744 in realtime met AllMySat

Download on the App Store